"Period start","avg(HW err(1)/warn(2) (#))","avg(Visibility (m))","avg(Weather code (#))","avg(Precip intensity (mm/h))","min(HW err(1)/warn(2) (#))","max(HW err(1)/warn(2) (#))","std(HW err(1)/warn(2) (#))","med(HW err(1)/warn(2) (#))","min(Visibility (m))","max(Visibility (m))","std(Visibility (m))","med(Visibility (m))","min(Weather code (#))","max(Weather code (#))","std(Weather code (#))","med(Weather code (#))","min(Precip intensity (mm/h))","max(Precip intensity (mm/h))","std(Precip intensity (mm/h))","med(Precip intensity (mm/h))"
2017-08-06 00:00:00,0,4792,10,0.00,0,0,0,0,3141,6875,1160,4888,10,10,0,10,0.00,0.00,0.00,0.00
2017-08-06 00:10:00,0,2741,10,0.00,0,0,0,0,2320,3195,283,2686,10,10,0,10,0.00,0.00,0.00,0.00
2017-08-06 00:20:00,0,2408,10,0.00,0,0,0,0,1960,2885,294,2401,10,10,0,10,0.00,0.00,0.00,0.00
2017-08-06 00:30:00,0,2850,10,0.00,0,0,0,0,2215,3637,468,2708,10,10,0,10,0.00,0.00,0.00,0.00
2017-08-06 00:40:00,0,2854,10,0.00,0,0,0,0,2466,3342,272,2850,10,10,0,10,0.00,0.00,0.00,0.00
2017-08-06 00:50:00,0,2415,10,0.00,0,0,0,0,2140,3060,266,2300,10,10,0,10,0.00,0.00,0.00,0.00
2017-08-06 01:00:00,0,2476,10,0.00,0,0,0,0,1763,3445,585,2282,10,10,0,10,0.00,0.00,0.00,0.00
2017-08-06 01:10:00,0,3356,10,0.00,0,0,0,0,2698,4266,411,3443,10,10,0,10,0.00,0.00,0.00,0.00
2017-08-06 01:20:00,0,2727,10,0.00,0,0,0,0,1959,3442,402,2684,10,10,0,10,0.00,0.00,0.00,0.00
2017-08-06 01:30:00,0,3504,10,0.00,0,0,0,0,2487,4649,789,3204,10,10,0,10,0.00,0.00,0.00,0.00
2017-08-06 01:40:00,0,4273,10,0.00,0,0,0,0,2746,7078,1141,4084,10,10,0,10,0.00,0.00,0.00,0.00
2017-08-06 01:50:00,0,3332,10,0.00,0,0,0,0,2541,4321,645,3146,10,10,0,10,0.00,0.00,0.00,0.00
2017-08-06 02:00:00,0,2430,10,0.00,0,0,0,0,2203,2670,154,2428,10,10,0,10,0.00,0.00,0.00,0.00
2017-08-06 02:10:00,0,3012,10,0.00,0,0,0,0,2655,3922,368,2890,10,10,0,10,0.00,0.00,0.00,0.00
2017-08-06 02:20:00,1,3842,10,0.00,0,2,1,2,3215,4575,531,3684,10,10,0,10,0.00,0.00,0.00,0.00
2017-08-06 02:30:00,0,3497,10,0.00,0,0,0,0,3078,4146,300,3538,10,10,0,10,0.00,0.00,0.00,0.00
2017-08-06 02:40:00,0,4067,10,0.00,0,0,0,0,2940,5393,731,4060,10,10,0,10,0.00,0.00,0.00,0.00
2017-08-06 02:50:00,0,3368,10,0.00,0,0,0,0,2859,3826,331,3256,10,10,0,10,0.00,0.00,0.00,0.00
2017-08-06 03:00:00,0,3380,10,0.00,0,0,0,0,2598,4951,655,3080,10,10,0,10,0.00,0.00,0.00,0.00
2017-08-06 03:10:00,2,3251,10,0.00,2,2,0,2,2603,4072,446,3192,10,10,0,10,0.00,0.00,0.00,0.00
2017-08-06 03:20:00,2,5562,10,0.00,2,2,0,2,2881,11812,2644,4923,10,10,0,10,0.00,0.00,0.00,0.00
2017-08-06 03:30:00,2,4182,10,0.00,2,2,0,2,2337,6219,1141,4072,10,10,0,10,0.00,0.00,0.00,0.00
2017-08-06 03:40:00,2,6761,10,0.00,2,2,0,2,4778,9287,1647,6196,10,10,0,10,0.00,0.00,0.00,0.00
2017-08-06 03:50:00,2,9665,10,0.00,0,2,1,2,3799,23857,5640,7907,10,10,0,10,0.00,0.00,0.00,0.00
2017-08-06 04:00:00,2,16660,9,0.00,0,2,1,2,9962,27641,5603,15204,0,10,3,10,0.00,0.00,0.00,0.00
2017-08-06 04:10:00,2,39635,0,0.00,0,2,1,2,22475,50000,7382,40820,0,0,0,0,0.00,0.00,0.00,0.00
2017-08-06 04:20:00,0,18300,0,0.00,0,0,0,0,7828,39462,9871,13080,0,0,0,0,0.00,0.00,0.00,0.00
2017-08-06 04:30:00,1,14611,5,0.00,0,2,1,2,4714,41384,12899,8426,0,10,5,5,0.00,0.00,0.00,0.00
2017-08-06 04:40:00,0,49833,3,0.00,0,0,0,0,48329,50000,501,50000,0,10,5,0,0.00,0.00,0.00,0.00
2017-08-06 04:50:00,1,47396,0,0.00,0,2,1,0,43462,50000,2808,48650,0,0,0,0,0.00,0.00,0.00,0.00
2017-08-06 05:00:00,1,15579,0,0.00,0,2,1,0,10483,26239,4655,14912,0,0,0,0,0.00,0.00,0.00,0.00
2017-08-06 05:10:00,1,7746,5,0.00,0,2,1,0,4788,10079,1906,8011,0,10,5,5,0.00,0.00,0.00,0.00
2017-08-06 05:20:00,2,8680,10,0.00,2,2,0,2,6197,10702,1349,8838,10,10,0,10,0.00,0.00,0.00,0.00
2017-08-06 05:30:00,2,6810,10,0.00,2,2,0,2,5589,9994,1273,6300,10,10,0,10,0.00,0.00,0.00,0.00
2017-08-06 05:40:00,2,13665,9,0.00,2,2,0,2,11032,18356,2300,12850,0,10,3,10,0.00,0.00,0.00,0.00
2017-08-06 05:50:00,2,9558,0,0.00,2,2,0,2,7111,11464,1097,9860,0,0,0,0,0.00,0.00,0.00,0.00
2017-08-06 06:00:00,2,11847,0,0.00,2,2,0,2,9112,15454,1929,11698,0,0,0,0,0.00,0.00,0.00,0.00
2017-08-06 06:10:00,2,14819,34,0.12,2,2,0,2,12235,17525,2026,14894,0,61,28,51,0.00,0.35,0.13,0.05
2017-08-06 06:20:00,2,16052,8,0.01,2,2,0,2,11427,19288,2533,15802,0,41,16,0,0.00,0.05,0.02,0.00
2017-08-06 06:30:00,2,8905,1,0.00,2,2,0,2,6745,13086,2179,8040,0,10,3,0,0.00,0.00,0.00,0.00
2017-08-06 06:40:00,2,6402,10,0.00,2,2,0,2,3917,8581,1463,6728,10,10,0,10,0.00,0.00,0.00,0.00
2017-08-06 06:50:00,2,8418,10,0.00,2,2,0,2,4080,12751,2559,8151,10,10,0,10,0.00,0.00,0.00,0.00
2017-08-06 07:00:00,2,6367,10,0.00,2,2,0,2,3665,8905,1684,5810,10,10,0,10,0.00,0.00,0.00,0.00
2017-08-06 07:10:00,2,3234,10,0.00,2,2,0,2,2257,4827,746,3027,10,10,0,10,0.00,0.00,0.00,0.00
2017-08-06 07:20:00,2,3493,10,0.00,2,2,0,2,2887,4406,550,3346,10,10,0,10,0.00,0.00,0.00,0.00
2017-08-06 07:30:00,2,4212,10,0.00,2,2,0,2,2839,5978,924,3878,10,10,0,10,0.00,0.00,0.00,0.00
2017-08-06 07:40:00,2,8980,10,0.00,2,2,0,2,6429,13605,2435,8306,10,10,0,10,0.00,0.00,0.00,0.00
2017-08-06 07:50:00,2,19885,9,0.00,2,2,0,2,9055,36996,9777,15666,0,10,3,10,0.00,0.00,0.00,0.00
2017-08-06 08:00:00,2,26506,0,0.00,2,2,0,2,13116,41547,8720,25986,0,0,0,0,0.00,0.00,0.00,0.00
2017-08-06 08:10:00,2,35826,0,0.00,2,2,0,2,19522,50000,11300,35592,0,0,0,0,0.00,0.00,0.00,0.00
2017-08-06 08:20:00,2,39254,0,0.00,2,2,0,2,28082,45960,5846,40098,0,0,0,0,0.00,0.00,0.00,0.00
2017-08-06 08:30:00,2,48211,0,0.00,2,2,0,2,42460,50000,2463,50000,0,0,0,0,0.00,0.00,0.00,0.00
2017-08-06 08:40:00,2,49310,0,0.00,2,2,0,2,46790,50000,1098,50000,0,0,0,0,0.00,0.00,0.00,0.00
2017-08-06 08:50:00,2,50000,0,0.00,2,2,0,2,50000,50000,0,50000,0,0,0,0,0.00,0.00,0.00,0.00
2017-08-06 09:00:00,2,49954,0,0.00,2,2,0,2,49545,50000,136,50000,0,0,0,0,0.00,0.00,0.00,0.00
2017-08-06 09:10:00,2,49616,0,0.00,2,2,0,2,46789,50000,961,50000,0,0,0,0,0.00,0.00,0.00,0.00
2017-08-06 09:20:00,2,49895,0,0.00,2,2,0,2,49375,50000,214,50000,0,0,0,0,0.00,0.00,0.00,0.00
2017-08-06 09:30:00,2,49940,0,0.00,2,2,0,2,49400,50000,180,50000,0,0,0,0,0.00,0.00,0.00,0.00
2017-08-06 09:40:00,2,50000,0,0.00,0,2,1,2,50000,50000,0,50000,0,0,0,0,0.00,0.00,0.00,0.00
2017-08-06 09:50:00,1,49919,0,0.00,0,2,1,2,49192,50000,242,50000,0,0,0,0,0.00,0.00,0.00,0.00
2017-08-06 10:00:00,0,50000,0,0.00,0,0,0,0,50000,50000,0,50000,0,0,0,0,0.00,0.00,0.00,0.00
2017-08-06 10:10:00,0,50000,0,0.00,0,0,0,0,50000,50000,0,50000,0,0,0,0,0.00,0.00,0.00,0.00
2017-08-06 10:20:00,0,49998,0,0.00,0,0,0,0,49980,50000,6,50000,0,0,0,0,0.00,0.00,0.00,0.00
2017-08-06 10:30:00,0,50000,0,0.00,0,0,0,0,50000,50000,0,50000,0,0,0,0,0.00,0.00,0.00,0.00
2017-08-06 10:40:00,0,50000,0,0.00,0,0,0,0,50000,50000,0,50000,0,0,0,0,0.00,0.00,0.00,0.00
2017-08-06 10:50:00,0,49888,0,0.00,0,0,0,0,48877,50000,337,50000,0,0,0,0,0.00,0.00,0.00,0.00
2017-08-06 11:00:00,0,50000,0,0.00,0,0,0,0,50000,50000,0,50000,0,0,0,0,0.00,0.00,0.00,0.00
2017-08-06 11:10:00,0,49987,0,0.00,0,0,0,0,49866,50000,40,50000,0,0,0,0,0.00,0.00,0.00,0.00
2017-08-06 11:20:00,0,50000,0,0.00,0,0,0,0,50000,50000,0,50000,0,0,0,0,0.00,0.00,0.00,0.00
2017-08-06 11:30:00,0,49890,0,0.00,0,0,0,0,48896,50000,331,50000,0,0,0,0,0.00,0.00,0.00,0.00
2017-08-06 11:40:00,0,50000,0,0.00,0,2,1,0,50000,50000,0,50000,0,0,0,0,0.00,0.00,0.00,0.00
2017-08-06 11:50:00,2,50000,0,0.00,0,2,1,2,50000,50000,0,50000,0,0,0,0,0.00,0.00,0.00,0.00
2017-08-06 12:00:00,2,50000,0,0.00,2,2,0,2,50000,50000,0,50000,0,0,0,0,0.00,0.00,0.00,0.00
2017-08-06 12:10:00,2,50000,0,0.00,2,2,0,2,50000,50000,0,50000,0,0,0,0,0.00,0.00,0.00,0.00
2017-08-06 12:20:00,2,50000,0,0.00,2,2,0,2,50000,50000,0,50000,0,0,0,0,0.00,0.00,0.00,0.00
2017-08-06 12:30:00,2,50000,0,0.00,2,2,0,2,50000,50000,0,50000,0,0,0,0,0.00,0.00,0.00,0.00
2017-08-06 12:40:00,2,50000,0,0.00,2,2,0,2,50000,50000,0,50000,0,0,0,0,0.00,0.00,0.00,0.00
2017-08-06 12:50:00,2,50000,0,0.00,2,2,0,2,50000,50000,0,50000,0,0,0,0,0.00,0.00,0.00,0.00
2017-08-06 13:00:00,2,50000,0,0.00,2,2,0,2,50000,50000,0,50000,0,0,0,0,0.00,0.00,0.00,0.00
2017-08-06 13:10:00,2,46727,0,0.00,2,2,0,2,35417,50000,5306,49780,0,0,0,0,0.00,0.00,0.00,0.00
2017-08-06 13:20:00,2,50000,0,0.00,2,2,0,2,50000,50000,0,50000,0,0,0,0,0.00,0.00,0.00,0.00
2017-08-06 13:30:00,2,50000,0,0.00,2,2,0,2,50000,50000,0,50000,0,0,0,0,0.00,0.00,0.00,0.00
2017-08-06 13:40:00,2,50000,0,0.00,2,2,0,2,50000,50000,0,50000,0,0,0,0,0.00,0.00,0.00,0.00
2017-08-06 13:50:00,2,50000,0,0.00,2,2,0,2,50000,50000,0,50000,0,0,0,0,0.00,0.00,0.00,0.00
2017-08-06 14:00:00,2,49792,0,0.00,2,2,0,2,47917,50000,625,50000,0,0,0,0,0.00,0.00,0.00,0.00
2017-08-06 14:10:00,2,50000,0,0.00,2,2,0,2,50000,50000,0,50000,0,0,0,0,0.00,0.00,0.00,0.00
2017-08-06 14:20:00,2,50000,0,0.00,0,2,1,2,50000,50000,0,50000,0,0,0,0,0.00,0.00,0.00,0.00
2017-08-06 14:30:00,2,50000,0,0.00,2,2,0,2,50000,50000,0,50000,0,0,0,0,0.00,0.00,0.00,0.00
2017-08-06 14:40:00,2,50000,0,0.00,2,2,0,2,50000,50000,0,50000,0,0,0,0,0.00,0.00,0.00,0.00
2017-08-06 14:50:00,1,50000,0,0.00,0,2,1,0,50000,50000,0,50000,0,0,0,0,0.00,0.00,0.00,0.00
2017-08-06 15:00:00,0,49932,0,0.00,0,0,0,0,49316,50000,205,50000,0,0,0,0,0.00,0.00,0.00,0.00
2017-08-06 15:10:00,0,50000,0,0.00,0,0,0,0,50000,50000,0,50000,0,0,0,0,0.00,0.00,0.00,0.00
2017-08-06 15:20:00,0,50000,0,0.00,0,0,0,0,50000,50000,0,50000,0,0,0,0,0.00,0.00,0.00,0.00
2017-08-06 15:30:00,0,50000,0,0.00,0,0,0,0,50000,50000,0,50000,0,0,0,0,0.00,0.00,0.00,0.00
2017-08-06 15:40:00,1,50000,0,0.00,0,2,1,0,50000,50000,0,50000,0,0,0,0,0.00,0.00,0.00,0.00
2017-08-06 15:50:00,1,50000,0,0.00,0,2,1,0,50000,50000,0,50000,0,0,0,0,0.00,0.00,0.00,0.00
2017-08-06 16:00:00,0,49397,0,0.00,0,0,0,0,46939,50000,1206,50000,0,0,0,0,0.00,0.00,0.00,0.00
2017-08-06 16:10:00,0,37267,0,0.00,0,0,0,0,11957,48538,12236,40604,0,0,0,0,0.00,0.00,0.00,0.00
2017-08-06 16:20:00,0,15991,0,0.00,0,0,0,0,10384,21229,3582,16778,0,0,0,0,0.00,0.00,0.00,0.00
2017-08-06 16:30:00,0,27274,0,0.00,0,0,0,0,14551,43242,9269,24304,0,0,0,0,0.00,0.00,0.00,0.00
2017-08-06 16:40:00,0,48844,0,0.00,0,0,0,0,44597,50000,1975,50000,0,0,0,0,0.00,0.00,0.00,0.00
2017-08-06 16:50:00,0,49847,0,0.00,0,0,0,0,49129,50000,309,50000,0,0,0,0,0.00,0.00,0.00,0.00
2017-08-06 17:00:00,0,48318,0,0.00,0,0,0,0,43349,50000,2142,48946,0,0,0,0,0.00,0.00,0.00,0.00
2017-08-06 17:10:00,0,50000,0,0.00,0,0,0,0,50000,50000,0,50000,0,0,0,0,0.00,0.00,0.00,0.00
2017-08-06 17:20:00,0,50000,0,0.00,0,0,0,0,50000,50000,0,50000,0,0,0,0,0.00,0.00,0.00,0.00
2017-08-06 17:30:00,0,50000,0,0.00,0,0,0,0,50000,50000,0,50000,0,0,0,0,0.00,0.00,0.00,0.00
2017-08-06 17:40:00,1,50000,0,0.00,0,2,1,2,50000,50000,0,50000,0,0,0,0,0.00,0.00,0.00,0.00
2017-08-06 17:50:00,2,50000,0,0.00,0,2,1,2,50000,50000,0,50000,0,0,0,0,0.00,0.00,0.00,0.00
2017-08-06 18:00:00,0,50000,0,0.00,0,0,0,0,50000,50000,0,50000,0,0,0,0,0.00,0.00,0.00,0.00
2017-08-06 18:10:00,0,50000,0,0.00,0,0,0,0,50000,50000,0,50000,0,0,0,0,0.00,0.00,0.00,0.00
2017-08-06 18:20:00,0,50000,0,0.00,0,0,0,0,50000,50000,0,50000,0,0,0,0,0.00,0.00,0.00,0.00
2017-08-06 18:30:00,0,50000,0,0.00,0,0,0,0,50000,50000,0,50000,0,0,0,0,0.00,0.00,0.00,0.00
2017-08-06 18:40:00,0,50000,0,0.00,0,0,0,0,50000,50000,0,50000,0,0,0,0,0.00,0.00,0.00,0.00
2017-08-06 18:50:00,0,50000,0,0.00,0,0,0,0,50000,50000,0,50000,0,0,0,0,0.00,0.00,0.00,0.00
2017-08-06 19:00:00,0,49973,0,0.00,0,0,0,0,49734,50000,80,50000,0,0,0,0,0.00,0.00,0.00,0.00
2017-08-06 19:10:00,0,50000,0,0.00,0,0,0,0,50000,50000,0,50000,0,0,0,0,0.00,0.00,0.00,0.00
2017-08-06 19:20:00,0,49776,0,0.00,0,0,0,0,47764,50000,671,50000,0,0,0,0,0.00,0.00,0.00,0.00
2017-08-06 19:30:00,0,50000,0,0.00,0,0,0,0,50000,50000,0,50000,0,0,0,0,0.00,0.00,0.00,0.00
2017-08-06 19:40:00,0,50000,0,0.00,0,0,0,0,50000,50000,0,50000,0,0,0,0,0.00,0.00,0.00,0.00
2017-08-06 19:50:00,0,50000,0,0.00,0,0,0,0,50000,50000,0,50000,0,0,0,0,0.00,0.00,0.00,0.00
2017-08-06 20:00:00,0,50000,0,0.00,0,0,0,0,50000,50000,0,50000,0,0,0,0,0.00,0.00,0.00,0.00
2017-08-06 20:10:00,0,49967,0,0.00,0,0,0,0,49674,50000,98,50000,0,0,0,0,0.00,0.00,0.00,0.00
2017-08-06 20:20:00,0,50000,0,0.00,0,0,0,0,50000,50000,0,50000,0,0,0,0,0.00,0.00,0.00,0.00
2017-08-06 20:30:00,0,49889,0,0.00,0,0,0,0,48893,50000,332,50000,0,0,0,0,0.00,0.00,0.00,0.00
2017-08-06 20:40:00,0,49918,0,0.00,0,0,0,0,49176,50000,247,50000,0,0,0,0,0.00,0.00,0.00,0.00
2017-08-06 20:50:00,0,50000,0,0.00,0,0,0,0,50000,50000,0,50000,0,0,0,0,0.00,0.00,0.00,0.00
2017-08-06 21:00:00,0,49344,0,0.00,0,0,0,0,45383,50000,1442,50000,0,0,0,0,0.00,0.00,0.00,0.00
2017-08-06 21:10:00,0,50000,0,0.00,0,0,0,0,50000,50000,0,50000,0,0,0,0,0.00,0.00,0.00,0.00
2017-08-06 21:20:00,0,49794,0,0.00,0,0,0,0,48452,50000,472,50000,0,0,0,0,0.00,0.00,0.00,0.00
2017-08-06 21:30:00,0,49741,0,0.00,0,0,0,0,47411,50000,777,50000,0,0,0,0,0.00,0.00,0.00,0.00
2017-08-06 21:40:00,0,50000,0,0.00,0,0,0,0,50000,50000,0,50000,0,0,0,0,0.00,0.00,0.00,0.00
2017-08-06 21:50:00,0,49501,0,0.00,0,0,0,0,46459,50000,1075,50000,0,0,0,0,0.00,0.00,0.00,0.00
2017-08-06 22:00:00,0,45508,0,0.00,0,0,0,0,39631,50000,3081,45318,0,0,0,0,0.00,0.00,0.00,0.00
2017-08-06 22:10:00,0,47620,0,0.00,0,0,0,0,36346,50000,4679,50000,0,0,0,0,0.00,0.00,0.00,0.00
2017-08-06 22:20:00,0,45376,0,0.00,0,0,0,0,33628,50000,5783,48437,0,0,0,0,0.00,0.00,0.00,0.00
2017-08-06 22:30:00,0,45845,0,0.00,0,0,0,0,40699,50000,3767,46348,0,0,0,0,0.00,0.00,0.00,0.00
2017-08-06 22:40:00,0,47054,0,0.00,0,0,0,0,41569,50000,2771,47438,0,0,0,0,0.00,0.00,0.00,0.00
2017-08-06 22:50:00,0,49838,0,0.00,0,0,0,0,48378,50000,487,50000,0,0,0,0,0.00,0.00,0.00,0.00
2017-08-06 23:00:00,0,44663,0,0.00,0,0,0,0,33542,50000,5743,46861,0,0,0,0,0.00,0.00,0.00,0.00
2017-08-06 23:10:00,0,42064,0,0.00,0,0,0,0,19394,50000,9838,46013,0,0,0,0,0.00,0.00,0.00,0.00
2017-08-06 23:20:00,0,43101,0,0.00,0,0,0,0,29181,50000,6149,43623,0,0,0,0,0.00,0.00,0.00,0.00
2017-08-06 23:30:00,0,44308,0,0.00,0,0,0,0,36976,50000,5017,44612,0,0,0,0,0.00,0.00,0.00,0.00
2017-08-06 23:40:00,0,35151,0,0.00,0,0,0,0,26198,44597,5450,36268,0,0,0,0,0.00,0.00,0.00,0.00
2017-08-06 23:50:00,0,34725,0,0.00,0,0,0,0,15600,45860,9204,37530,0,0,0,0,0.00,0.00,0.00,0.00
